When you browse on this site, cookies collect data to enhance your experience and personalize the content and advertising you see.
Visit our Privacy Policy to learn more. By continuing to use the site, you agree to this use of cookies and data.
  • In Hungary
  • List of Countries
  • For 7 days
  • Water Temperature
  • Satellite Maps
  • Weather Map
  • News
  • Weather Widgets
  • user-avatar
    Login

    Hourly Weather Lincoln

    Today, 17 January, Thursday

    Time Temperature Precipitation Wind Pressure Humidity
    00:00 +1°C° 0 mm 4 mps 745 mmHg 87%
    01:00 0°C° 0 mm 4 mps 746 mmHg 86%
    02:00 0°C° 0 mm 4 mps 746 mmHg 86%
    03:00 0°C° 0 mm 4 mps 746 mmHg 85%
    04:00 0°C° 0.2 mm 5 mps 747 mmHg 83%
    05:00 -1°C° 0.2 mm 6 mps 748 mmHg 80%
    06:00 -1°C° 0.2 mm 7 mps 749 mmHg 77%
    07:00 -2°C° 0 mm 7 mps 750 mmHg 74%
    08:00 -3°C° 0 mm 6 mps 751 mmHg 71%
    09:00 -3°C° 0 mm 6 mps 752 mmHg 68%
    10:00 -2°C° 0 mm 7 mps 752 mmHg 66%
    11:00 -1°C° 0 mm 7 mps 753 mmHg 64%
    12:00 0°C° 0 mm 8 mps 754 mmHg 62%
    13:00 0°C° 0 mm 7 mps 754 mmHg 63%
    14:00 +1°C° 0 mm 6 mps 755 mmHg 64%
    15:00 +1°C° 0 mm 5 mps 755 mmHg 65%
    16:00 0°C° 0 mm 4 mps 756 mmHg 68%
    17:00 -1°C° 0 mm 4 mps 756 mmHg 70%
    18:00 -2°C° 0 mm 4 mps 757 mmHg 72%
    19:00 -1°C° 0 mm 3 mps 757 mmHg 73%
    20:00 -1°C° 0 mm 3 mps 758 mmHg 74%
    21:00 -1°C° 0 mm 3 mps 758 mmHg 74%
    22:00 -1°C° 0 mm 2 mps 758 mmHg 74%
    23:00 -1°C° 0 mm 2 mps 758 mmHg 74%

    Tomorrow, 18 January, Friday

    Time Temperature Precipitation Wind Pressure Humidity
    00:00 -1°C° 0 mm 2 mps 759 mmHg 75%
    01:00 -1°C° 0 mm 2 mps 758 mmHg 74%
    02:00 -1°C° 0 mm 2 mps 758 mmHg 74%
    03:00 +1°C° 0 mm 1 mps 758 mmHg 74%
    04:00 -1°C° 0 mm 2 mps 758 mmHg 74%
    05:00 -1°C° 0 mm 2 mps 758 mmHg 75%
    06:00 -2°C° 0 mm 2 mps 758 mmHg 75%
    07:00 -2°C° 0 mm 2 mps 758 mmHg 75%
    08:00 -2°C° 0 mm 3 mps 758 mmHg 74%
    09:00 -2°C° 0 mm 3 mps 758 mmHg 74%
    10:00 0°C° 0 mm 3 mps 757 mmHg 70%
    11:00 0°C° 0 mm 4 mps 757 mmHg 65%
    12:00 +1°C° 0 mm 5 mps 757 mmHg 61%
    13:00 +1°C° 0 mm 5 mps 756 mmHg 64%
    14:00 +1°C° 0 mm 4 mps 756 mmHg 66%
    15:00 +1°C° 0 mm 4 mps 755 mmHg 69%
    16:00 +1°C° 0 mm 4 mps 755 mmHg 71%
    17:00 +1°C° 0 mm 5 mps 754 mmHg 74%
    18:00 0°C° 0 mm 5 mps 754 mmHg 76%
    19:00 0°C° 0.1 mm 5 mps 754 mmHg 76%
    20:00 0°C° 0.1 mm 5 mps 754 mmHg 77%
    21:00 -1°C° 0.1 mm 6 mps 753 mmHg 77%
    22:00 -1°C° 0.2 mm 6 mps 753 mmHg 78%
    23:00 -1°C° 0.2 mm 6 mps 753 mmHg 80%

    Day after tomorrow, 19 January, Saturday

    Time Temperature Precipitation Wind Pressure Humidity
    00:00 -1°C° 0.2 mm 6 mps 752 mmHg 82%
    01:00 -1°C° 0.6 mm 6 mps 752 mmHg 84%
    02:00 -1°C° 0.6 mm 6 mps 752 mmHg 86%
    03:00 -1°C° 0.6 mm 6 mps 751 mmHg 88%
    04:00 -1°C° 0.7 mm 6 mps 751 mmHg 90%
    05:00 0°C° 0.7 mm 5 mps 751 mmHg 91%
    06:00 0°C° 0.7 mm 5 mps 750 mmHg 93%
    07:00 0°C° 0.3 mm 5 mps 750 mmHg 94%
    08:00 0°C° 0.3 mm 5 mps 750 mmHg 95%
    09:00 0°C° 0.3 mm 4 mps 750 mmHg 97%
    10:00 0°C° 0.2 mm 4 mps 751 mmHg 97%
    11:00 0°C° 0.2 mm 4 mps 751 mmHg 98%
    12:00 0°C° 0.2 mm 4 mps 751 mmHg 98%
    13:00 0°C° 0.1 mm 4 mps 751 mmHg 98%
    14:00 +2°C° 0.1 mm 3 mps 750 mmHg 98%
    15:00 +2°C° 0.1 mm 3 mps 750 mmHg 98%
    16:00 +2°C° 0.1 mm 3 mps 751 mmHg 98%
    17:00 +1°C° 0.1 mm 3 mps 751 mmHg 98%
    18:00 +2°C° 0.1 mm 2 mps 751 mmHg 98%
    19:00 +2°C° 0 mm 2 mps 751 mmHg 98%
    20:00 +2°C° 0 mm 2 mps 752 mmHg 98%
    21:00 +2°C° 0 mm 2 mps 752 mmHg 97%
    22:00 +2°C° 0 mm 2 mps 753 mmHg 97%
    23:00 +1°C° 0 mm 2 mps 753 mmHg 96%

    20 January, Sunday

    Time Temperature Precipitation Wind Pressure Humidity
    00:00 +2°C° 0 mm 1 mps 753 mmHg 95%
    01:00 +1°C° 0 mm 1 mps 753 mmHg 95%
    02:00 +1°C° 0 mm 1 mps 754 mmHg 95%
    03:00 0°C° 0 mm 0 mps 754 mmHg 95%
    04:00 0°C° 0 mm 0 mps 754 mmHg 94%
    05:00 0°C° 0 mm 0 mps 755 mmHg 94%
    06:00 0°C° 0 mm 0 mps 755 mmHg 94%
    07:00 0°C° 0 mm 0 mps 756 mmHg 94%
    08:00 +1°C° 0 mm 1 mps 756 mmHg 94%
    09:00 +1°C° 0 mm 1 mps 757 mmHg 94%
    10:00 +2°C° 0 mm 1 mps 758 mmHg 93%
    11:00 +3°C° 0 mm 1 mps 758 mmHg 92%
    12:00 +4°C° 0 mm 1 mps 759 mmHg 91%
    13:00 +4°C° 0 mm 1 mps 759 mmHg 92%
    14:00 +4°C° 0 mm 1 mps 759 mmHg 93%
    15:00 +3°C° 0 mm 2 mps 760 mmHg 93%
    16:00 +3°C° 0 mm 2 mps 760 mmHg 93%
    17:00 +2°C° 0 mm 2 mps 761 mmHg 93%
    18:00 +2°C° 0 mm 2 mps 761 mmHg 93%
    19:00 +2°C° 0 mm 2 mps 762 mmHg 93%
    20:00 +1°C° 0 mm 3 mps 763 mmHg 93%
    21:00 0°C° 0 mm 4 mps 763 mmHg 92%
    22:00 0°C° 0.1 mm 4 mps 763 mmHg 91%
    23:00 0°C° 0.1 mm 4 mps 764 mmHg 89%

    21 January, Monday

    Time Temperature Precipitation Wind Pressure Humidity
    00:00 -1°C° 0.1 mm 4 mps 764 mmHg 88%
    01:00 -1°C° 0 mm 4 mps 764 mmHg 87%
    02:00 -2°C° 0 mm 4 mps 764 mmHg 87%
    03:00 -2°C° 0 mm 3 mps 764 mmHg 87%
    04:00 -2°C° 0 mm 3 mps 764 mmHg 87%
    05:00 -2°C° 0 mm 3 mps 765 mmHg 87%
    06:00 -2°C° 0 mm 3 mps 765 mmHg 87%
    07:00 -2°C° 0 mm 3 mps 765 mmHg 86%
    08:00 -2°C° 0 mm 2 mps 765 mmHg 85%
    09:00 -2°C° 0 mm 2 mps 765 mmHg 84%
    10:00 -1°C° 0 mm 2 mps 765 mmHg 80%
    11:00 +1°C° 0 mm 2 mps 764 mmHg 76%
    12:00 +4°C° 0 mm 1 mps 764 mmHg 72%
    13:00 +3°C° 0 mm 2 mps 763 mmHg 75%
    14:00 +2°C° 0 mm 2 mps 762 mmHg 77%
    15:00 +1°C° 0 mm 3 mps 762 mmHg 80%
    16:00 +1°C° 0 mm 3 mps 761 mmHg 82%
    17:00 0°C° 0 mm 4 mps 760 mmHg 84%
    18:00 -1°C° 0 mm 4 mps 759 mmHg 87%
    19:00 0°C° 0 mm 5 mps 758 mmHg 87%
    20:00 -1°C° 0 mm 6 mps 757 mmHg 87%
    21:00 -1°C° 0 mm 6 mps 755 mmHg 87%
    22:00 -1°C° 0.4 mm 7 mps 754 mmHg 87%
    23:00 -1°C° 0.4 mm 8 mps 752 mmHg 87%

    22 January, Tuesday

    Time Temperature Precipitation Wind Pressure Humidity
    00:00 -1°C° 0.4 mm 9 mps 750 mmHg 87%
    01:00 0°C° 1.5 mm 8 mps 749 mmHg 88%
    02:00 0°C° 1.5 mm 7 mps 748 mmHg 90%
    03:00 0°C° 1.5 mm 7 mps 746 mmHg 91%
    04:00 0°C° 0.6 mm 5 mps 746 mmHg 90%
    05:00 +1°C° 0.6 mm 3 mps 745 mmHg 90%
    06:00 +2°C° 0.6 mm 1 mps 744 mmHg 89%
    07:00 +1°C° 0 mm 2 mps 744 mmHg 88%
    08:00 +1°C° 0 mm 2 mps 744 mmHg 87%
    09:00 -1°C° 0 mm 2 mps 743 mmHg 86%
    10:00 +1°C° 0 mm 2 mps 743 mmHg 84%
    11:00 +1°C° 0 mm 3 mps 743 mmHg 82%
    12:00 +1°C° 0 mm 3 mps 743 mmHg 81%
    13:00 +1°C° 0 mm 3 mps 743 mmHg 81%
    14:00 +1°C° 0 mm 3 mps 742 mmHg 82%
    15:00 +1°C° 0 mm 3 mps 742 mmHg 82%
    16:00 0°C° 0 mm 3 mps 742 mmHg 83%
    17:00 -1°C° 0 mm 4 mps 743 mmHg 85%
    18:00 -2°C° 0 mm 4 mps 743 mmHg 86%
    19:00 -2°C° 0 mm 5 mps 743 mmHg 86%
    20:00 -2°C° 0 mm 6 mps 743 mmHg 86%
    21:00 -2°C° 0 mm 7 mps 744 mmHg 86%
    22:00 -2°C° 0.8 mm 6 mps 744 mmHg 89%
    23:00 -1°C° 0.8 mm 5 mps 744 mmHg 92%
    Show more